GW1072 Weather Reports


time (UTC)temp
C
wind
direction
speed
KPH
gust
KPH
rain 1hr
cm
rain 24hr
cm
rain mn
cm
humidity
%
barometer
mb
20260508064920 11 337 0.0 0.0 0.00 0.00 0.00 99 1014.8
20260508064417 11 337 0.0 0.0 0.00 0.00 0.00 99 1014.8
20260508063915 11 337 0.0 0.0 0.00 0.00 0.00 99 1014.8
20260508063412 11 337 0.0 0.0 0.00 0.00 0.00 99 1014.6
20260508062909 11 337 0.0 0.0 0.00 0.00 0.00 99 1014.6
20260508062407 11 337 0.0 0.0 0.00 0.00 0.00 99 1014.7
20260508061904 11 337 0.0 0.0 0.00 0.00 0.00 99 1014.7
20260508061401 11 337 0.0 0.0 0.00 0.00 0.00 99 1014.7
20260508060857 11 337 0.0 0.0 0.00 0.00 0.00 99 1014.7
20260508060355 11 337 0.0 0.0 0.00 0.00 0.00 99 1014.8
20260508055850 11 337 0.0 0.0 0.00 0.00 0.00 99 1014.6
20260508055348 11 337 0.0 0.0 0.00 0.00 0.00 99 1014.5
20260508054844 11 337 0.0 0.0 0.00 0.00 0.00 99 1014.6
20260508054341 11 337 0.0 0.0 0.00 0.00 0.00 99 1014.6
20260508053838 11 337 0.0 0.0 0.00 0.00 0.00 99 1014.6
20260508053336 11 339 0.0 0.0 0.00 0.00 0.00 99 1014.5
20260508052833 11 339 0.0 0.0 0.00 0.00 0.00 99 1014.4
20260508052330 11 339 0.0 0.0 0.00 0.00 0.00 99 1014.5
20260508051826 11 339 0.0 0.0 0.00 0.00 0.00 99 1014.4
20260508051321 11 339 0.0 0.0 0.00 0.00 0.00 99 1014.5
20260508050818 11 339 0.0 0.0 0.00 0.00 0.00 99 1014.4
20260508050316 11 339 0.0 0.0 0.00 0.00 0.00 99 1014.3
20260508045811 12 339 0.0 0.0 0.00 0.00 0.00 99 1014.6
20260508045309 12 339 0.0 0.0 0.00 0.00 0.00 99 1014.7
20260508044807 12 338 0.0 0.0 0.00 0.00 0.00 99 1014.6
20260508044303 12 339 0.0 0.0 0.00 0.00 0.00 99 1014.5
20260508043759 12 339 0.0 0.0 0.00 0.00 0.00 99 1014.5
20260508043257 12 339 0.0 0.0 0.00 0.00 0.00 99 1014.6
20260508042753 11 339 0.0 0.0 0.00 0.00 0.00 99 1014.4
20260508042250 11 339 0.0 0.0 0.00 0.00 0.00 99 1014.3
20260508041747 12 339 0.0 0.0 0.00 0.00 0.00 99 1014.4
20260508041244 12 339 0.0 0.0 0.00 0.00 0.00 99 1014.5
20260508040740 12 339 0.0 0.0 0.00 0.00 0.00 99 1014.4
20260508040238 12 339 0.0 0.0 0.00 0.00 0.00 99 1014.6
20260508035735 12 339 0.0 0.0 0.00 3.96 3.96 99 1014.3
20260508035232 12 339 0.0 0.0 0.00 3.96 3.96 99 1014.5
20260508034728 12 331 0.0 0.0 0.00 3.96 3.96 99 1014.2
20260508034226 12 321 0.0 0.0 0.00 3.96 3.96 99 1014.1
20260508033723 12 318 0.0 0.0 0.00 3.96 3.96 99 1013.8
20260508033221 12 305 0.0 0.0 0.00 3.96 3.96 99 1013.9
20260508032718 12 297 0.0 0.0 0.00 3.96 3.96 99 1013.7
20260508032215 12 332 0.0 0.0 0.00 3.96 3.96 99 1014.1
20260508031712 12 324 0.0 0.0 0.00 3.96 3.96 99 1013.7
20260508031208 12 291 0.0 0.0 0.00 3.96 3.96 99 1013.6
20260508030705 12 294 0.0 0.0 0.00 3.96 3.96 99 1013.8
20260508030203 11 337 0.0 0.0 0.00 3.96 3.96 99 1013.8
20260508025658 11 337 0.0 1.6 0.00 3.96 3.96 99 1013.5
20260508025156 11 298 0.0 0.0 0.00 3.96 3.96 99 1013.5
20260508024651 11 299 0.0 0.0 0.00 3.96 3.96 99 1013.4
20260508024149 11 285 0.0 0.0 0.00 3.96 3.96 99 1013.5
20260508023645 12 294 0.0 0.0 0.00 3.96 3.96 99 1013.4
20260508023143 12 294 0.0 0.0 0.00 3.96 3.96 99 1013.5
20260508022638 12 294 0.0 0.0 0.00 3.96 3.96 99 1013.4
20260508022136 12 294 0.0 1.6 0.00 3.96 3.96 99 1013.3
20260508021632 12 310 0.0 0.0 0.00 3.96 3.96 99 1013.2
20260508021127 12 306 0.0 0.0 0.00 3.96 3.96 99 1013.0
20260508020625 12 306 0.0 0.0 0.00 3.96 3.96 99 1013.1
20260508020123 12 307 0.0 0.0 0.00 3.96 3.96 99 1013.2
20260508015620 12 339 0.0 0.0 0.00 3.96 3.96 99 1013.1
20260508015117 12 340 0.0 0.0 0.00 3.96 3.96 99 1013.3
20260508014613 12 340 0.0 0.0 0.00 3.96 3.96 99 1013.2
20260508014110 12 340 0.0 0.0 0.00 3.96 3.96 99 1013.2
20260508013606 12 340 0.0 0.0 0.00 3.96 3.96 99 1013.1
20260508013103 12 340 0.0 0.0 0.00 3.96 3.96 99 1012.7
20260508012600 11 340 0.0 0.0 0.00 3.96 3.96 99 1012.7
20260508012057 11 295 1.6 1.6 0.00 3.96 3.96 99 1012.1
20260508011556 12 287 0.0 1.6 0.00 3.96 3.96 99 1012.1
20260508011053 12 299 0.0 0.0 0.00 3.96 3.96 99 1012.5
20260508010549 11 297 0.0 0.0 0.00 3.96 3.96 99 1012.4
20260508010047 11 301 1.6 3.2 0.00 3.96 3.96 99 1012.1
20260508005543 12 305 1.6 1.6 0.00 3.96 3.96 99 1012.3
20260508005040 12 331 0.0 0.0 0.00 3.96 3.96 99 1012.5
20260508004536 12 333 0.0 1.6 0.18 3.96 3.96 99 1012.9
20260508004033 12 273 1.6 1.6 0.48 3.96 3.96 99 1012.3
20260508003529 12 284 3.2 3.2 0.79 3.94 3.94 99 1012.0
20260508003027 12 308 1.6 1.6 0.89 3.86 3.86 99 1012.7
20260508002523 12 274 0.0 3.2 1.02 3.81 3.81 99 1012.4
20260508002021 12 267 3.2 3.2 0.30 3.68 3.68 99 1012.5
20260508001516 12 56 3.2 4.8 0.00 3.63 3.63 99 1012.0
20260508001013 12 275 0.0 1.6 0.00 3.63 3.63 99 1011.6
20260508000508 12 291 1.6 3.2 0.00 3.63 3.63 99 1011.5
20260508000006 12 290 3.2 4.8 0.00 3.63 3.63 99 1011.1
20260507235502 12 302 1.6 3.2 0.00 3.63 3.63 99 1011.1
20260507235000 12 286 1.6 4.8 0.00 3.63 3.63 98 1011.2
20260507234456 12 288 0.0 1.6 0.00 3.63 3.63 98 1011.1
20260507233953 12 298 1.6 9.7 0.00 3.63 3.63 98 1011.3
20260507233450 12 304 3.2 8.0 0.00 3.63 3.63 98 1011.3
20260507232948 12 302 4.8 8.0 0.00 3.63 3.63 98 1011.3
20260507232444 12 261 3.2 12.9 0.00 3.63 3.63 97 1011.4
20260507231942 12 243 4.8 4.8 0.00 3.63 3.63 98 1011.5
20260507231438 12 280 4.8 8.0 0.00 3.63 3.63 98 1011.3
20260507230935 12 295 3.2 8.0 0.00 3.63 3.63 98 1011.1
20260507230432 12 277 1.6 9.7 0.00 3.63 3.63 98 1011.0
20260507225933 12 235 3.2 4.8 0.00 3.63 3.63 98 1011.0
20260507225429 12 205 4.8 11.3 0.00 3.63 3.63 98 1011.1
20260507224925 12 328 3.2 8.0 0.00 3.63 3.63 98 1011.0
20260507224421 12 227 3.2 8.0 0.00 3.63 3.63 98 1010.8
20260507223918 12 229 8.0 9.7 0.00 3.63 3.63 98 1010.9
20260507223414 12 279 4.8 4.8 0.00 3.63 3.63 98 1010.7
20260507222911 12 225 1.6 4.8 0.00 3.63 3.63 98 1010.7
20260507222408 12 271 4.8 4.8 0.00 3.63 3.63 99 1010.9
20260507221905 12 259 9.7 11.3 0.00 3.63 3.63 99 1010.7
20260507221401 12 250 1.6 4.8 0.00 3.63 3.63 99 1010.6
20260507220857 12 304 4.8 8.0 0.00 3.63 3.63 99 1010.7
20260507220356 12 286 3.2 12.9 0.00 3.63 3.63 99 1010.9
20260507215852 12 271 1.6 9.7 0.00 3.63 3.63 99 1010.9
20260507215349 12 278 0.0 3.2 0.00 3.63 3.63 99 1011.0
20260507214846 12 295 9.7 14.5 0.00 3.63 3.63 99 1010.9
20260507214343 12 289 1.6 8.0 0.00 3.63 3.63 99 1010.6
20260507213838 12 226 6.4 11.3 0.00 3.63 3.63 99 1010.8
20260507213335 12 305 1.6 9.7 0.00 3.63 3.63 99 1010.6
20260507212832 12 189 8.0 17.7 0.00 3.63 3.63 99 1010.4
20260507212327 12 243 3.2 16.1 0.00 3.63 3.63 99 1010.6
20260507211824 12 298 4.8 12.9 0.00 3.63 3.63 99 1010.3
20260507211321 12 277 4.8 9.7 0.00 3.63 3.63 99 1010.2
20260507210818 12 272 4.8 11.3 0.00 3.63 3.63 99 1010.2
20260507210315 12 231 4.8 9.7 0.00 3.63 3.63 99 1010.2
20260507205811 13 33 1.6 9.7 0.00 3.63 3.63 99 1010.2
20260507205309 13 115 4.8 8.0 0.00 3.63 3.63 99 1010.1
20260507204804 13 328 3.2 8.0 0.00 3.63 3.63 99 1009.8
20260507204302 13 209 3.2 3.2 0.00 3.63 3.63 99 1009.9
20260507203800 13 205 4.8 9.7 0.00 3.63 3.63 99 1010.0
20260507203258 13 293 1.6 4.8 0.18 3.63 3.63 99 1009.7
20260507202754 13 309 4.8 9.7 0.48 3.63 3.63 99 1009.8
20260507202249 13 211 1.6 3.2 0.48 3.61 3.61 99 1010.2
20260507201744 13 203 6.4 12.9 0.18 3.56 3.56 99 1009.8
20260507201241 13 276 1.6 8.0 0.43 3.53 3.53 99 1009.8
20260507200738 13 278 1.6 9.7 1.68 3.51 3.51 99 1009.7
20260507200234 13 78 4.8 4.8 1.85 3.45 3.45 99 1010.1
20260507195730 14 285 4.8 8.0 0.43 3.20 3.20 99 1009.6
20260507195228 14 230 4.8 4.8 0.13 3.15 3.15 99 1009.7
20260507194725 14 336 4.8 8.0 0.00 3.12 3.12 99 1009.7
20260507194221 14 256 1.6 8.0 0.00 3.12 3.12 99 1009.6
20260507193717 14 277 1.6 12.9 0.00 3.12 3.12 99 1009.9
20260507193214 14 287 4.8 8.0 0.00 3.12 3.12 99 1009.6
20260507192710 15 40 3.2 9.7 0.00 3.12 3.12 99 1009.6
20260507192208 15 293 1.6 8.0 0.00 3.12 3.12 99 1009.4
20260507191703 15 215 11.3 17.7 0.00 3.12 3.12 99 1009.6
20260507191201 15 290 3.2 4.8 0.00 3.12 3.12 99 1009.6
20260507190657 15 223 11.3 14.5 0.18 3.12 3.12 99 1009.5
20260507190156 16 242 1.6 8.0 0.89 3.12 3.12 99 1009.1
20260507185654 16 303 1.6 11.3 0.79 3.07 3.07 99 1008.4
20260507185150 16 282 4.8 12.9 0.00 2.95 2.95 99 1008.8
20260507184648 16 265 0.0 3.2 0.18 2.95 2.95 99 1008.8
20260507184146 16 345 1.6 4.8 0.00 2.92 2.92 99 1009.1
20260507183642 17 249 0.0 3.2 0.00 2.92 2.92 99 1009.4
20260507183139 17 225 3.2 8.0 0.00 2.92 2.92 99 1009.4
20260507182636 17 215 3.2 9.7 0.00 2.92 2.92 97 1009.0
20260507182132 20 276 4.8 14.5 0.00 2.92 2.92 97 1008.4
20260507181628 21 351 1.6 8.0 0.00 2.92 2.92 99 1008.5
20260507181125 21 78 1.6 3.2 0.00 2.92 2.92 99 1008.8
20260507180621 21 69 0.0 1.6 0.00 2.92 2.92 99 1008.7
20260507180118 21 161 3.2 3.2 0.00 2.92 2.92 99 1008.9
20260507175614 20 79 1.6 3.2 0.00 2.92 2.92 99 1009.2
20260507175112 20 51 3.2 4.8 0.00 2.92 2.92 99 1009.2
20260507174609 20 160 1.6 4.8 0.00 2.92 2.92 99 1009.1
20260507174107 20 59 0.0 3.2 0.00 2.92 2.92 99 1008.9
20260507173604 20 104 0.0 4.8 0.00 2.92 2.92 99 1008.9
20260507173100 20 92 1.6 8.0 0.00 2.92 2.92 99 1008.5
20260507172556 20 87 6.4 8.0 0.00 2.92 2.92 99 1008.9
20260507172054 21 39 0.0 4.8 0.00 2.92 2.92 99 1008.8
20260507171548 21 346 1.6 3.2 0.00 2.92 2.92 99 1008.5
20260507171046 20 3 1.6 4.8 0.00 2.92 2.92 99 1008.6
20260507170543 20 29 0.0 3.2 0.00 2.92 2.92 99 1008.7
20260507170040 20 48 0.0 1.6 0.00 2.92 2.92 99 1008.6
20260507165535 20 82 3.2 4.8 0.00 2.92 2.92 99 1009.0
20260507165032 20 61 0.0 1.6 0.00 2.92 2.92 99 1009.2
20260507164528 20 329 0.0 1.6 0.00 2.92 2.92 99 1009.3
20260507164026 20 349 1.6 4.8 0.00 2.92 2.92 99 1009.6
20260507163523 20 353 1.6 3.2 0.00 2.92 2.92 99 1009.8
20260507163021 20 10 1.6 3.2 0.00 2.92 2.92 99 1009.9
20260507162515 20 21 0.0 3.2 0.00 2.92 2.92 99 1009.9
20260507162012 20 332 3.2 4.8 0.00 2.92 2.92 99 1010.0
20260507161509 20 63 3.2 3.2 0.00 2.92 2.92 99 1010.1
20260507161006 20 359 1.6 3.2 0.00 2.92 2.92 99 1010.2
20260507160501 20 341 3.2 8.0 0.00 2.92 2.92 99 1010.5
20260507155957 20 149 6.4 9.7 0.00 2.92 2.92 99 1010.4
20260507155453 20 15 3.2 4.8 0.00 2.92 2.92 99 1010.2
20260507154950 20 338 0.0 0.0 0.00 2.92 2.92 99 1009.9
20260507154447 20 331 0.0 1.6 0.13 2.92 2.92 99 1009.8
20260507153944 19 325 0.0 0.0 0.13 2.92 2.92 99 1009.6
20260507153441 19 4 1.6 3.2 0.00 2.90 2.90 99 1009.8
20260507152937 19 338 0.0 3.2 0.00 2.90 2.90 99 1010.1
20260507152433 19 76 4.8 9.7 0.18 2.90 2.90 99 1009.7
20260507151930 18 97 3.2 4.8 0.18 2.90 2.90 99 1009.8
20260507151426 18 5 0.0 1.6 0.30 2.87 2.87 99 1009.9
20260507150923 18 73 0.0 3.2 0.61 2.87 2.87 99 1009.9
20260507150420 18 18 1.6 3.2 0.30 2.79 2.79 99 1010.1
20260507145916 18 47 3.2 9.7 0.43 2.77 2.77 99 1010.4
20260507145412 18 352 4.8 11.3 0.79 2.72 2.72 99 1010.4
20260507144909 18 348 1.6 9.7 1.37 2.69 2.69 99 1010.4
20260507144406 18 339 6.4 16.1 1.02 2.54 2.54 99 1010.3
20260507143903 19 16 11.3 16.1 1.07 2.44 2.44 99 1010.4
20260507143401 19 294 0.0 0.0 1.07 2.36 2.36 99 1010.6
20260507142857 19 352 1.6 8.0 0.89 2.26 2.26 99 1010.6
20260507142353 19 309 4.8 4.8 0.89 2.18 2.18 99 1010.5
20260507141850 19 46 0.0 4.8 0.97 2.08 2.08 99 1010.5
20260507141346 19 127 1.6 9.7 0.61 2.01 2.01 99 1010.6
20260507140843 19 39 1.6 1.6 0.13 1.93 1.93 99 1010.7
20260507140340 20 53 4.8 9.7 0.18 1.91 1.91 99 1010.7
20260507135838 19 318 0.0 1.6 0.18 1.91 1.91 99 1010.6
20260507135334 20 15 1.6 1.6 0.00 1.88 1.88 99 1010.7
20260507134832 20 21 0.0 1.6 0.00 1.88 1.88 99 1010.7
20260507134328 20 335 0.0 1.6 0.00 1.88 1.88 99 1010.5
20260507133824 20 38 1.6 1.6 0.00 1.88 1.88 99 1010.6
20260507133319 20 77 0.0 1.6 0.00 1.88 1.88 99 1010.6
20260507132818 19 100 3.2 3.2 0.00 1.88 1.88 99 1010.3
20260507132314 19 4 1.6 3.2 0.00 1.88 1.88 99 1010.6
20260507131812 20 0 1.6 1.6 0.00 1.88 1.88 99 1010.6
20260507131308 20 40 0.0 4.8 0.00 1.88 1.88 99 1010.5
20260507130804 19 49 1.6 1.6 0.00 1.88 1.88 99 1010.4
20260507130303 19 0 1.6 4.8 0.00 1.88 1.88 99 1010.3
20260507125801 19 24 4.8 4.8 0.00 1.88 1.88 99 1010.3
20260507125258 19 87 1.6 3.2 0.00 1.88 1.88 99 1010.3
20260507124755 19 82 4.8 9.7 0.00 1.88 1.88 99 1010.4
20260507124251 19 320 0.0 1.6 0.00 1.88 1.88 99 1010.4
20260507123750 19 350 0.0 4.8 0.00 1.88 1.88 99 1010.5
20260507123247 19 130 4.8 8.0 0.00 1.88 1.88 99 1010.7
20260507122742 19 334 0.0 1.6 0.00 1.88 1.88 99 1010.6
20260507122238 19 327 1.6 1.6 0.00 1.88 1.88 99 1010.8
20260507121734 19 61 1.6 1.6 0.00 1.88 1.88 99 1010.8
20260507121230 19 287 1.6 1.6 0.00 1.88 1.88 99 1010.7
20260507120727 18 0 0.0 1.6 0.00 1.88 1.88 99 1010.9
20260507120224 18 334 0.0 0.0 0.00 1.88 1.88 99 1010.9
20260507115720 18 346 0.0 0.0 0.00 1.88 1.88 99 1010.9
20260507115216 18 333 0.0 0.0 0.00 1.88 1.88 99 1010.9
20260507114711 18 5 0.0 1.6 0.00 1.88 1.88 99 1011.2
20260507114209 18 2 0.0 0.0 0.00 1.88 1.88 99 1011.4
20260507113706 18 3 0.0 0.0 0.00 1.88 1.88 99 1011.3
20260507113203 18 3 0.0 0.0 0.00 1.88 1.88 99 1011.2
20260507112701 18 317 0.0 1.6 0.00 1.88 1.88 99 1011.1
20260507112157 18 311 0.0 1.6 0.00 1.88 1.88 99 1011.0
20260507111655 18 327 0.0 1.6 0.00 1.88 1.88 99 1011.4
20260507111152 18 49 0.0 0.0 0.00 1.88 1.88 99 1011.3
20260507110647 18 61 1.6 3.2 0.00 1.88 1.88 99 1011.4
20260507110144 18 47 0.0 4.8 0.00 1.88 1.88 99 1011.4
20260507105641 18 14 0.0 1.6 0.00 1.88 1.88 99 1011.1
20260507105137 18 337 0.0 0.0 0.13 1.88 1.88 99 1011.0
20260507104635 18 338 0.0 1.6 0.13 1.88 1.88 99 1011.1
20260507104131 18 341 0.0 0.0 0.18 1.85 1.85 99 1011.0
20260507103627 18 356 0.0 0.0 0.13 1.83 1.83 99 1010.9
20260507103124 18 39 0.0 3.2 0.00 1.80 1.80 99 1010.9
20260507102620 18 326 0.0 1.6 0.00 1.80 1.80 99 1010.7
20260507102116 18 337 0.0 0.0 0.18 1.80 1.80 99 1011.0
20260507101612 18 8 0.0 0.0 0.18 1.80 1.80 99 1011.1
20260507101108 18 38 1.6 3.2 0.00 1.78 1.78 99 1011.2
20260507100606 18 45 0.0 0.0 0.13 1.78 1.78 99 1011.1
20260507100104 18 26 0.0 0.0 0.13 1.78 1.78 99 1010.8
20260507095602 18 2 0.0 3.2 0.00 1.75 1.75 99 1010.8
20260507095058 18 337 1.6 9.7 0.18 1.75 1.75 99 1010.8
20260507094554 18 332 0.0 0.0 0.18 1.75 1.75 99 1010.8
20260507094046 18 352 0.0 0.0 0.00 1.73 1.73 99 1010.9
20260507093543 18 46 0.0 4.8 0.00 1.73 1.73 99 1010.9
20260507093042 18 57 1.6 1.6 0.00 1.73 1.73 99 1010.8
20260507092537 18 324 0.0 0.0 0.13 1.73 1.73 99 1010.7
20260507092035 18 349 0.0 3.2 0.00 1.70 1.70 99 1010.9
20260507091531 18 4 6.4 9.7 0.00 1.70 1.70 99 1010.9
20260507091027 18 37 3.2 4.8 0.00 1.70 1.70 99 1010.7
20260507090523 18 337 0.0 0.0 0.00 1.70 1.70 99 1010.9
20260507090020 18 50 3.2 4.8 0.00 1.70 1.70 99 1010.8
20260507085518 18 337 0.0 0.0 0.00 1.70 1.70 99 1010.9
20260507085014 18 319 0.0 1.6 0.18 1.70 1.70 99 1010.8
20260507084511 18 73 1.6 3.2 0.48 1.70 1.70 99 1011.2
20260507084008 18 41 0.0 0.0 0.61 1.68 1.68 99 1011.1
20260507083504 18 49 1.6 3.2 0.79 1.63 1.63 99 1011.6
20260507083001 18 339 0.0 1.6 0.43 1.55 1.55 99 1011.4
20260507082457 18 70 1.6 3.2 0.30 1.50 1.50 99 1011.7
20260507081953 18 343 0.0 3.2 0.00 1.45 1.45 99 1011.8
20260507081450 18 321 1.6 1.6 0.13 1.45 1.45 99 1011.5
20260507080947 18 75 0.0 1.6 0.30 1.45 1.45 99 1011.2
20260507080443 18 155 1.6 1.6 0.18 1.42 1.42 99 1011.6
20260507075938 18 295 1.6 3.2 0.18 1.40 1.40 99 1010.8
20260507075435 18 246 0.0 0.0 0.13 1.37 1.37 99 1011.7
20260507074931 18 245 0.0 0.0 0.13 1.37 1.37 99 1011.8
20260507074428 18 244 0.0 0.0 0.00 1.35 1.35 99 1011.6
20260507073926 18 245 0.0 0.0 0.18 1.35 1.35 99 1011.7
20260507073422 18 121 0.0 3.2 0.18 1.35 1.35 99 1011.7
20260507072919 18 310 0.0 1.6 0.13 1.32 1.32 99 1011.7
20260507072417 18 331 0.0 0.0 0.30 1.32 1.32 99 1011.7
20260507071915 18 336 0.0 0.0 0.18 1.30 1.30 99 1011.7
20260507071411 18 337 0.0 0.0 0.00 1.27 1.27 99 1011.8
20260507070907 18 333 0.0 0.0 0.00 1.27 1.27 99 1012.0
20260507070405 18 333 0.0 0.0 0.00 1.27 1.27 99 1012.1
20260507065901 18 333 0.0 0.0 0.00 1.27 1.27 99 1012.2
20260507065358 18 333 0.0 0.0 0.00 1.27 1.27 99 1012.1